Weather History for Covington, KY

Change the Weather History Date:

Sunday, February 3, 2013

  Actual Average Record
Temperature  
Mean Temperature 22 °F 32 °F  
Max Temperature 28 °F 40 °F 66 °F (1883)
Min Temperature 15 °F 24 °F -9 °F (1985)
Degree Days  
Heating Degree Days 43 33  
Month to date heating degree days 138 99  
Since 1 July heating degree days 2966 3071  
Cooling Degree Days 0 0  
Month to date cooling degree days 0 0  
Year to date cooling degree days 0 0  
Moisture  
Dew Point 17 °F    
Average Humidity 80    
Maximum Humidity 88    
Minimum Humidity 71    
Precipitation  
Precipitation 0.01 in 0.11 in 1.34 in (1887)
Month to date precipitation 0.13 0.32  
Year to date precipitation 3.52 3.32  
Snow  
Snow 0.30 in 0.30 in 5.70 in (1995)
Month to date snowfall 1.9 0.9  
Since 1 July snowfall 11.7 13.0  
Snow Depth 2.00 in    
Sea Level Pressure  
Sea Level Pressure 30.03 in    
Wind  
Wind Speed 10 mph (West)    
Max Wind Speed 18 mph    
Max Gust Speed 22 mph    
Visibility 7 miles    
Events Snow    
T = Trace of Precipitation, MM = Missing Value Source: NWS Daily Summary

Daily Weather History Graph

Daily Weather History Graph

Search for Another Location

Airport:

Trip Planner

Search our weather history database for the weather conditions in past years. The results will help you decide how hot, cold, wet, or windy it might be!

Date:

Astronomy

Feb. 03, 2013 Rise Set
Actual Time 7:43 AM EST 6:02 PM EST
Civil Twilight 7:15 AM EST 6:30 PM EST
Nautical Twilight 6:43 AM EST 7:02 PM EST
Astronomical Twilight 6:11 AM EST 7:33 PM EST
Moon 1:09 AM EST (2/3) 11:39 AM EST (2/3)
Length of Visible Light 11h 15m
Length of Day
10h 19m
Waning Gibbous, 49% of the Moon is Illuminated
Feb 3
Waning Gibbous
Feb 10
New
Feb 17
First Quarter
Feb 25
Full
Mar 4
Last Quarter

Hourly Weather History & Observations

Time (EST) Temp. Windchill Dew Point Humidity Pressure Visibility Wind Dir Wind Speed Gust Speed Precip Events Conditions
12:08 AM 28.4 °F 22.2 °F 21.2 °F 74% 30.01 in 10.0 mi SW 5.8 mph - N/A   Overcast
12:52 AM 28.0 °F 19.3 °F 21.0 °F 75% 30.02 in 10.0 mi West 9.2 mph - N/A   Overcast
1:52 AM 27.0 °F 16.1 °F 19.0 °F 72% 30.00 in 10.0 mi West 12.7 mph - N/A   Overcast
2:09 AM 26.6 °F 17.5 °F 19.4 °F 74% 29.98 in 10.0 mi West 9.2 mph - N/A   Overcast
2:52 AM 24.1 °F 12.5 °F 19.9 °F 84% 29.99 in 7.0 mi West 12.7 mph - N/A   Mostly Cloudy
3:04 AM 24.8 °F 14.0 °F 19.4 °F 80% 29.97 in 7.0 mi West 11.5 mph - N/A   Mostly Cloudy
3:52 AM 21.9 °F 11.0 °F 17.1 °F 82% 29.98 in 7.0 mi West 10.4 mph - N/A   Overcast
4:15 AM 21.2 °F 13.6 °F 15.8 °F 80% 29.95 in 7.0 mi West 5.8 mph - N/A   Overcast
4:52 AM 19.9 °F 9.3 °F 15.1 °F 81% 29.97 in 8.0 mi West 9.2 mph - N/A   Overcast
5:47 AM 19.4 °F 7.2 °F 15.8 °F 86% 29.94 in 7.0 mi West 11.5 mph - N/A   Overcast
5:52 AM 19.9 °F 7.9 °F 15.1 °F 81% 29.96 in 7.0 mi West 11.5 mph - N/A   Overcast
6:52 AM 19.9 °F 9.3 °F 14.0 °F 78% 29.96 in 8.0 mi West 9.2 mph - N/A   Overcast
7:37 AM 19.4 °F 6.6 °F 12.2 °F 74% 29.95 in 2.5 mi West 12.7 mph - 0.00 in Snow Light Snow
7:40 AM 19.4 °F 7.2 °F 12.2 °F 74% 29.95 in 1.5 mi West 11.5 mph - 0.00 in Snow Light Snow
7:52 AM 19.0 °F 7.5 °F 14.0 °F 81% 29.98 in 1.5 mi West 10.4 mph - 0.00 in Snow Light Snow
8:52 AM 19.0 °F 7.5 °F 14.0 °F 81% 30.00 in 6.0 mi West 10.4 mph - 0.01 in   Haze
9:52 AM 19.0 °F 6.1 °F 12.9 °F 77% 30.00 in 5.0 mi West 12.7 mph - N/A   Haze
10:52 AM 21.0 °F 9.3 °F 14.0 °F 74% 30.00 in 9.0 mi West 11.5 mph - N/A   Overcast
11:52 AM 21.0 °F 9.9 °F 14.0 °F 74% 30.01 in 10.0 mi WNW 10.4 mph - N/A   Overcast
12:52 PM 23.0 °F 12.4 °F 15.1 °F 72% 30.01 in 10.0 mi West 10.4 mph - N/A   Overcast
1:52 PM 23.0 °F 9.6 °F 16.0 °F 74% 30.01 in 10.0 mi West 16.1 mph - N/A   Overcast
2:52 PM 24.1 °F 12.5 °F 18.0 °F 77% 30.04 in 8.0 mi WNW 12.7 mph - N/A   Overcast
3:28 PM 23.0 °F 11.1 °F 19.4 °F 86% 30.02 in 3.0 mi West 12.7 mph - 0.00 in Snow Light Snow
3:52 PM 23.0 °F 13.1 °F 19.0 °F 85% 30.06 in 3.0 mi West 9.2 mph - 0.00 in Snow Light Snow
4:52 PM 24.1 °F 15.2 °F 19.9 °F 84% 30.08 in 2.0 mi West 8.1 mph - 0.00 in Snow Light Snow
5:22 PM 24.8 °F 14.6 °F 19.4 °F 80% 30.05 in 4.0 mi West 10.4 mph - 0.00 in   Haze
5:52 PM 24.1 °F 15.2 °F 19.0 °F 81% 30.09 in 5.0 mi West 8.1 mph - 0.00 in   Haze
6:47 PM 23.0 °F 13.9 °F 17.6 °F 80% 30.08 in 5.0 mi West 8.1 mph - 0.00 in Snow Light Snow
6:52 PM 23.0 °F 13.9 °F 19.0 °F 85% 30.11 in 7.0 mi WSW 8.1 mph - 0.00 in   Overcast
7:32 PM 24.8 °F 13.4 °F 19.4 °F 80% 30.09 in 8.0 mi West 12.7 mph - 0.00 in   Overcast
7:52 PM 23.0 °F 11.1 °F 18.0 °F 81% 30.13 in 9.0 mi West 12.7 mph - 0.00 in   Mostly Cloudy
8:52 PM 19.9 °F 11.1 °F 15.1 °F 81% 30.15 in 10.0 mi West 6.9 mph - N/A   Scattered Clouds
9:52 PM 19.9 °F 14.9 °F 15.1 °F 81% 30.15 in 10.0 mi SW 3.5 mph - N/A   Partly Cloudy
10:52 PM 18.0 °F 9.8 °F 14.0 °F 84% 30.14 in 10.0 mi SSW 5.8 mph - N/A   Partly Cloudy
11:52 PM 19.0 °F 13.9 °F 15.1 °F 85% 30.14 in 8.0 mi SW 3.5 mph - N/A   Scattered Clouds